Weather in Volyn

Russia / Ryazan Oblast     54°26′28″N   39°31′05″E
temp.,
°C
wind,
m/s
gust,
m/s
humid.,
%
clouds,
%
prec.,
mm/h
press.,
hPa
HPBL,
m
2 march, tue
tue200:00+1w71392100 0.0 1016671
03:00+1wsw61394100 0.0 1014625
06:00+1w71495100 0.0 1010689
09:00+1wnw71399100 0.1 1010654
12:00+1nw61297100 0.2 1008731
15:00+1wnw51292100 0.3 1008802
18:00−1nw5118990 0.1 1008366
21:00−1nw5128887 0.2 1010602
3 march, wed
wed300:00−2nw61291100 0.1 1010644
03:00−4nw6139599 0.3 1012574
06:00−6nw6139183 0.1 1013518
09:00−6nw7148990 0.1 1015667
12:00−4nw6118444 0.0 1015828
15:00−1wnw5108631 0.0 1015902
18:00−2wnw5129099 0.1 1014513
21:00−2w5129499 0.2 1015463
4 march, thu
thu400:00−3w5119194 0.1 1014369
03:00−2w6129096 0.1 1012692
06:00−2wsw71588100 0.0 1009474
09:00−1wsw91887100 0.0 1006564
12:00+1wsw91780100 0.0 1002870
15:00+1wsw81583100 0.0 1001956
18:00+1w71490100 0.0 1000833
21:000w51197100 0.1 1000639
5 march, fri
fri500:00−2nnw3688100 0.6 1001262
03:00−4nw3388100 0.6 100376
06:00−5nnw2592100 0.0 1005140
09:00−6n2293100 0.0 1006112
12:00−4nne1186100 0.0 1007266
15:00−3ne1184100 0.0 1007351
18:00−5ne1190100 0.0 100721
21:00−5nne2294100 0.0 100737
6 march, sat
sat600:00−6n3596100 0.1 1008139
03:00−8nnw3496100 0.1 100981
06:00−10nw339683 0.0 101062
09:00−9wnw359445 0.0 1010194
12:00−6nw359199 0.1 1011524
15:00−6nw5782100 0.4 1011904
18:00−9w348750 0.0 101255
21:00−10wsw349365 0.1 101246